{"data":{"norad_id":65250,"epoch":"2026-09-20T14:25:48.556416Z","epoch_age_seconds":108834,"freshness":"FRESH","line1":"1 65250U 25179R   26263.60125644  .00011813  00000+0  36768-3 0  9995","line2":"2 65250  97.2860 302.8569 0001074  42.0625 318.0700 15.33443652 61312","mean_motion":15.33443652,"eccentricity":0.0001074,"inclination_deg":97.286,"raan_deg":302.8569,"arg_perigee_deg":42.0625,"mean_anomaly_deg":318.07,"bstar":0.00036768,"rev_number":6131,"period_min":93.906287206698,"perigee_km":464.81217349918,"apogee_km":466.28219686216,"semimajor_km":6843.6841851807,"source":"CELESTRAK","updated_at":"2026-09-21T09:00:35.560883Z"}}